When you browse on this site, cookies collect data to enhance your experience and personalize the content and advertising you see.
Visit our Privacy Policy to learn more. By continuing to use the site, you agree to this use of cookies and data.
  • In Hungary
  • List of Countries
  • For 7 days
  • Water Temperature
  • Satellite Maps
  • Weather Map
  • News
  • Weather Widgets
  • user-avatar
    Login

    Hourly Weather Koslan

    Today, 21 November, Wednesday

    Time Temperature Precipitation Wind Pressure Humidity
    00:00 -2°C° 0.2 mm 6 mps 741 mmHg 79%
    01:00 -3°C° 0.2 mm 6 mps 741 mmHg 77%
    02:00 -4°C° 0.2 mm 6 mps 742 mmHg 75%
    03:00 -4°C° 0 mm 7 mps 743 mmHg 72%
    04:00 -5°C° 0.1 mm 6 mps 743 mmHg 72%
    05:00 -5°C° 0.1 mm 6 mps 743 mmHg 72%
    06:00 -6°C° 0.1 mm 6 mps 744 mmHg 71%
    07:00 -6°C° 0.1 mm 5 mps 744 mmHg 71%
    08:00 -6°C° 0.1 mm 5 mps 744 mmHg 71%
    09:00 -7°C° 0.1 mm 5 mps 744 mmHg 71%
    10:00 -7°C° 0.1 mm 5 mps 744 mmHg 70%
    11:00 -7°C° 0.1 mm 5 mps 744 mmHg 68%
    12:00 -6°C° 0.1 mm 5 mps 744 mmHg 67%
    13:00 -7°C° 0.1 mm 5 mps 744 mmHg 68%
    14:00 -7°C° 0.1 mm 4 mps 744 mmHg 70%
    15:00 -8°C° 0.1 mm 4 mps 744 mmHg 71%
    16:00 -7°C° 0 mm 3 mps 743 mmHg 73%
    17:00 -8°C° 0 mm 3 mps 743 mmHg 75%
    18:00 -8°C° 0 mm 3 mps 743 mmHg 77%
    19:00 -8°C° 0 mm 3 mps 743 mmHg 79%
    20:00 -9°C° 0 mm 3 mps 743 mmHg 82%
    21:00 -8°C° 0 mm 2 mps 742 mmHg 84%
    22:00 -8°C° 0 mm 2 mps 742 mmHg 86%
    23:00 -8°C° 0 mm 2 mps 741 mmHg 88%

    Tomorrow, 22 November, Thursday

    Time Temperature Precipitation Wind Pressure Humidity
    00:00 -8°C° 0 mm 2 mps 740 mmHg 90%
    01:00 -8°C° 0 mm 2 mps 740 mmHg 91%
    02:00 -8°C° 0 mm 2 mps 739 mmHg 91%
    03:00 -8°C° 0 mm 2 mps 739 mmHg 92%
    04:00 -8°C° 0 mm 2 mps 738 mmHg 92%
    05:00 -9°C° 0 mm 2 mps 738 mmHg 92%
    06:00 -9°C° 0 mm 2 mps 737 mmHg 92%
    07:00 -8°C° 0 mm 2 mps 737 mmHg 92%
    08:00 -8°C° 0 mm 2 mps 736 mmHg 92%
    09:00 -8°C° 0 mm 2 mps 736 mmHg 91%
    10:00 -8°C° 0 mm 2 mps 735 mmHg 89%
    11:00 -8°C° 0 mm 3 mps 735 mmHg 86%
    12:00 -7°C° 0 mm 3 mps 734 mmHg 83%
    13:00 -7°C° 0.2 mm 3 mps 734 mmHg 82%
    14:00 -8°C° 0.2 mm 4 mps 734 mmHg 81%
    15:00 -8°C° 0.2 mm 4 mps 734 mmHg 79%
    16:00 -9°C° 0.1 mm 4 mps 735 mmHg 78%
    17:00 -10°C° 0.1 mm 5 mps 735 mmHg 76%
    18:00 -10°C° 0.1 mm 5 mps 736 mmHg 74%
    19:00 -10°C° 0 mm 5 mps 736 mmHg 77%
    20:00 -10°C° 0 mm 4 mps 737 mmHg 79%
    21:00 -10°C° 0 mm 4 mps 738 mmHg 82%
    22:00 -10°C° 0 mm 4 mps 739 mmHg 81%
    23:00 -10°C° 0 mm 4 mps 740 mmHg 80%

    Day after tomorrow, 23 November, Friday

    Time Temperature Precipitation Wind Pressure Humidity
    00:00 -11°C° 0 mm 5 mps 741 mmHg 80%
    01:00 -11°C° 0 mm 4 mps 742 mmHg 80%
    02:00 -11°C° 0 mm 4 mps 743 mmHg 80%
    03:00 -10°C° 0 mm 3 mps 743 mmHg 80%
    04:00 -10°C° 0 mm 3 mps 744 mmHg 82%
    05:00 -12°C° 0 mm 3 mps 744 mmHg 83%
    06:00 -10°C° 0 mm 2 mps 744 mmHg 85%
    07:00 -9°C° 0.1 mm 2 mps 744 mmHg 86%
    08:00 -9°C° 0.1 mm 2 mps 744 mmHg 87%
    09:00 -8°C° 0.1 mm 2 mps 744 mmHg 88%
    10:00 -9°C° 0.1 mm 3 mps 744 mmHg 87%
    11:00 -8°C° 0.1 mm 3 mps 744 mmHg 85%
    12:00 -8°C° 0.1 mm 4 mps 744 mmHg 84%
    13:00 -7°C° 0 mm 3 mps 744 mmHg 86%
    14:00 -8°C° 0 mm 3 mps 744 mmHg 89%
    15:00 -8°C° 0 mm 3 mps 744 mmHg 91%
    16:00 -8°C° 0 mm 3 mps 743 mmHg 92%
    17:00 -7°C° 0 mm 2 mps 743 mmHg 93%
    18:00 -7°C° 0 mm 2 mps 743 mmHg 95%
    19:00 -6°C° 0.1 mm 2 mps 743 mmHg 94%
    20:00 -6°C° 0.1 mm 2 mps 742 mmHg 94%
    21:00 -6°C° 0.1 mm 2 mps 742 mmHg 94%
    22:00 -6°C° 0.1 mm 2 mps 741 mmHg 94%
    23:00 -6°C° 0.1 mm 2 mps 741 mmHg 95%

    24 November, Saturday

    Time Temperature Precipitation Wind Pressure Humidity
    00:00 -4°C° 0.1 mm 1 mps 741 mmHg 95%
    01:00 -6°C° 0.1 mm 2 mps 740 mmHg 95%
    02:00 -6°C° 0.1 mm 2 mps 740 mmHg 95%
    03:00 -6°C° 0.1 mm 2 mps 739 mmHg 95%
    04:00 -6°C° 0.3 mm 2 mps 739 mmHg 94%
    05:00 -7°C° 0.3 mm 3 mps 738 mmHg 94%
    06:00 -7°C° 0.3 mm 3 mps 737 mmHg 94%
    07:00 -6°C° 0.5 mm 3 mps 736 mmHg 94%
    08:00 -6°C° 0.5 mm 3 mps 736 mmHg 94%
    09:00 -6°C° 0.5 mm 3 mps 735 mmHg 94%
    10:00 -6°C° 0.4 mm 3 mps 735 mmHg 94%
    11:00 -4°C° 0.4 mm 2 mps 734 mmHg 94%
    12:00 -4°C° 0.4 mm 2 mps 734 mmHg 93%
    13:00 -4°C° 0.3 mm 2 mps 734 mmHg 94%
    14:00 -4°C° 0.3 mm 2 mps 734 mmHg 95%
    15:00 -4°C° 0.3 mm 2 mps 733 mmHg 95%
    16:00 -5°C° 0.3 mm 2 mps 733 mmHg 95%
    17:00 -3°C° 0.3 mm 1 mps 733 mmHg 95%
    18:00 -3°C° 0.3 mm 1 mps 733 mmHg 95%
    19:00 -5°C° 0.2 mm 2 mps 734 mmHg 95%
    20:00 -6°C° 0.2 mm 2 mps 734 mmHg 94%
    21:00 -6°C° 0.2 mm 2 mps 734 mmHg 94%
    22:00 -7°C° 0.1 mm 2 mps 735 mmHg 93%
    23:00 -7°C° 0.1 mm 2 mps 736 mmHg 92%

    25 November, Sunday

    Time Temperature Precipitation Wind Pressure Humidity
    00:00 -9°C° 0.1 mm 3 mps 736 mmHg 91%
    01:00 -9°C° 0 mm 3 mps 737 mmHg 91%
    02:00 -9°C° 0 mm 2 mps 738 mmHg 91%
    03:00 -9°C° 0 mm 2 mps 738 mmHg 90%
    04:00 -10°C° 0 mm 2 mps 739 mmHg 90%
    05:00 -10°C° 0 mm 2 mps 740 mmHg 90%
    06:00 -12°C° 0 mm 2 mps 740 mmHg 90%
    07:00 -12°C° 0 mm 2 mps 741 mmHg 90%
    08:00 -13°C° 0 mm 2 mps 742 mmHg 91%
    09:00 -13°C° 0 mm 2 mps 743 mmHg 91%
    10:00 -12°C° 0 mm 1 mps 743 mmHg 90%
    11:00 -12°C° 0 mm 1 mps 744 mmHg 89%
    12:00 -12°C° 0 mm 1 mps 745 mmHg 88%
    13:00 -13°C° 0 mm 1 mps 745 mmHg 89%
    14:00 -13°C° 0 mm 1 mps 746 mmHg 91%
    15:00 -14°C° 0 mm 1 mps 746 mmHg 92%
    16:00 -14°C° 0 mm 1 mps 747 mmHg 92%
    17:00 -14°C° 0 mm 1 mps 747 mmHg 92%
    18:00 -15°C° 0 mm 1 mps 747 mmHg 93%
    19:00 -15°C° 0 mm 1 mps 748 mmHg 93%
    20:00 -15°C° 0 mm 1 mps 748 mmHg 93%
    21:00 -15°C° 0 mm 1 mps 748 mmHg 93%
    22:00 -15°C° 0 mm 1 mps 748 mmHg 94%
    23:00 -16°C° 0 mm 1 mps 748 mmHg 94%

    26 November, Monday

    Time Temperature Precipitation Wind Pressure Humidity
    00:00 -16°C° 0 mm 1 mps 749 mmHg 94%
    01:00 -16°C° 0 mm 1 mps 749 mmHg 94%
    02:00 -16°C° 0 mm 1 mps 749 mmHg 94%
    03:00 -16°C° 0 mm 1 mps 749 mmHg 95%
    04:00 -16°C° 0 mm 1 mps 749 mmHg 95%
    05:00 -16°C° 0 mm 1 mps 749 mmHg 95%
    06:00 -16°C° 0 mm 1 mps 749 mmHg 95%
    07:00 -15°C° 0 mm 1 mps 749 mmHg 95%
    08:00 -15°C° 0 mm 1 mps 749 mmHg 95%
    09:00 -15°C° 0 mm 1 mps 749 mmHg 94%
    10:00 -15°C° 0 mm 1 mps 749 mmHg 93%
    11:00 -14°C° 0 mm 1 mps 749 mmHg 92%
    12:00 -14°C° 0 mm 1 mps 749 mmHg 91%
    13:00 -14°C° 0 mm 1 mps 749 mmHg 92%
    14:00 -14°C° 0 mm 1 mps 749 mmHg 93%
    15:00 -14°C° 0 mm 1 mps 748 mmHg 94%
    16:00 -14°C° 0 mm 1 mps 748 mmHg 94%
    17:00 -16°C° 0 mm 2 mps 748 mmHg 94%
    18:00 -16°C° 0 mm 2 mps 748 mmHg 94%
    19:00 -16°C° 0 mm 2 mps 748 mmHg 94%
    20:00 -16°C° 0 mm 2 mps 748 mmHg 94%
    21:00 -16°C° 0 mm 2 mps 748 mmHg 94%
    22:00 -16°C° 0 mm 2 mps 748 mmHg 94%
    23:00 -16°C° 0 mm 2 mps 748 mmHg 94%
    Show more